Vancouver, WA

3:49 AM PST on January 24, 2017 (GMT -0800)
Pearson

Weather History for KVUO - February, 2013

Change the Weather History Date:

Thursday, February 21, 2013

  Actual Average Record
Temperature  
Mean Temperature 43 °F 44 °F  
Max Temperature 46 °F 53 °F 66 °F (1958)
Min Temperature 40 °F 35 °F 23 °F (1975)
Degree Days  
Heating Degree Days 22    
Month to date heating degree days 464  
Since 1 July heating degree days 2887  
Cooling Degree Days 0    
Month to date cooling degree days 0  
Year to date cooling degree days 0  
Moisture  
Dew Point 37 °F    
Average Humidity 81    
Maximum Humidity 86    
Minimum Humidity 76    
Precipitation  
Precipitation 0.05 in 0.11 in 1.01 in (1948)
Month to date precipitation 0.38 3.05  
Year to date precipitation 3.78 8.55  
Snow  
Snow 0.00 in - - ()
Month to date snowfall 0.0  
Snow Depth 0.00 in    
Sea Level Pressure  
Sea Level Pressure 30.16 in    
Wind  
Wind Speed 5 mph (South)    
Max Wind Speed 12 mph    
Max Gust Speed 20 mph    
Visibility 10 miles    
Events Rain    
T = Trace of Precipitation, MM = Missing Value Source: NWS Daily Summary

Daily Weather History Graph

Daily Weather History Graph

Search for Another Location

Airport or City:

Trip Planner

Search our weather history database for the weather conditions in past years. The results will help you decide how hot, cold, wet, or windy it might be!

Date:

Astronomy

Feb. 21, 2013 Rise Set
Actual Time 7:02 AM PST 5:46 PM PST
Civil Twilight 6:32 AM PST 6:16 PM PST
Nautical Twilight 5:57 AM PST 6:51 PM PST
Astronomical Twilight 5:23 AM PST 7:25 PM PST
Moon 1:59 PM PST (2/21) 4:18 AM PST (2/21)
Length of Visible Light 11h 44m
Length of Day
10h 44m
Waxing Gibbous, 84% of the Moon is Illuminated
Feb 21
Waxing Gibbous
Feb 25
Full
Mar 4
Last Quarter
Mar 11
New
Mar 19
First Quarter

Hourly Weather History & Observations

Time (PST) Temp. Windchill Dew Point Humidity Pressure Visibility Wind Dir Wind Speed Gust Speed Precip Events Conditions
12:53 AM 41.0 °F 39.0 °F 36.0 °F 82% 30.10 in 10.0 mi SE 3.5 mph - N/A   Overcast
1:53 AM 41.0 °F 39.0 °F 36.0 °F 82% 30.12 in 10.0 mi SSE 3.5 mph - 0.01 in   Overcast
2:53 AM 41.0 °F - 37.0 °F 86% 30.14 in 10.0 mi Calm Calm - 0.01 in   Overcast
3:53 AM 41.0 °F - 37.9 °F 89% 30.15 in 10.0 mi Calm Calm - 0.01 in Rain Light Rain
4:53 AM 41.0 °F - 37.9 °F 89% 30.15 in 10.0 mi Calm Calm - 0.00 in   Overcast
5:53 AM 41.0 °F 39.0 °F 36.0 °F 82% 30.16 in 10.0 mi South 3.5 mph - N/A   Clear
6:53 AM 39.9 °F 36.7 °F 36.0 °F 86% 30.16 in 10.0 mi SE 4.6 mph - N/A   Overcast
7:53 AM 41.0 °F 39.0 °F 36.0 °F 82% 30.18 in 10.0 mi SSE 3.5 mph - N/A   Overcast
8:53 AM 42.1 °F 39.2 °F 36.0 °F 79% 30.19 in 10.0 mi SE 4.6 mph - 0.00 in Rain Light Rain
9:53 AM 43.0 °F 38.8 °F 36.0 °F 76% 30.18 in 10.0 mi South 6.9 mph - 0.00 in   Overcast
10:53 AM 44.1 °F 40.8 °F 37.0 °F 76% 30.18 in 10.0 mi South 5.8 mph - N/A   Overcast
11:42 AM 44.6 °F 40.7 °F 37.4 °F 76% 30.18 in 9.0 mi SSW 6.9 mph - 0.00 in Rain Light Rain
11:53 AM 44.1 °F 40.1 °F 37.9 °F 79% 30.19 in 7.0 mi SSW 6.9 mph - 0.01 in Rain Light Rain
12:29 PM 44.6 °F 40.7 °F 37.4 °F 76% 30.17 in 10.0 mi South 6.9 mph - 0.01 in Rain Light Rain
12:53 PM 44.1 °F 40.1 °F 37.9 °F 79% 30.16 in 10.0 mi South 6.9 mph - 0.01 in   Overcast
1:53 PM 45.0 °F 41.2 °F 37.0 °F 74% 30.15 in 10.0 mi SSE 6.9 mph - N/A   Overcast
2:53 PM 45.0 °F 40.6 °F 37.9 °F 76% 30.14 in 10.0 mi South 8.1 mph - 0.00 in   Overcast
3:53 PM 45.0 °F 40.6 °F 37.0 °F 74% 30.15 in 10.0 mi South 8.1 mph - N/A   Overcast
4:08 PM 44.6 °F 39.7 °F 37.4 °F 76% 30.14 in 10.0 mi SSW 9.2 mph 19.6 mph 0.00 in Rain Light Rain
4:53 PM 45.0 °F 42.6 °F 37.9 °F 76% 30.14 in 10.0 mi Variable 4.6 mph - 0.00 in   Overcast
5:18 PM 44.6 °F 40.2 °F 37.4 °F 76% 30.14 in 10.0 mi SSW 8.1 mph - N/A   Overcast
5:29 PM 44.6 °F 38.8 °F 37.4 °F 76% 30.14 in 10.0 mi South 11.5 mph - N/A   Overcast
5:53 PM 45.0 °F 41.8 °F 37.9 °F 76% 30.14 in 10.0 mi SSW 5.8 mph - N/A   Overcast
6:25 PM 44.6 °F 41.4 °F 37.4 °F 76% 30.15 in 10.0 mi South 5.8 mph 19.6 mph N/A   Overcast
6:53 PM 45.0 °F 41.2 °F 37.0 °F 74% 30.16 in 10.0 mi Variable 6.9 mph - N/A   Overcast
7:02 PM 44.6 °F 40.2 °F 37.4 °F 76% 30.16 in 10.0 mi SSW 8.1 mph 18.4 mph N/A   Overcast
7:20 PM 44.6 °F 40.7 °F 37.4 °F 76% 30.16 in 10.0 mi Variable 6.9 mph - N/A   Overcast
7:53 PM 44.1 °F 42.5 °F 37.9 °F 79% 30.15 in 10.0 mi SW 3.5 mph - N/A   Overcast
8:27 PM 44.6 °F 40.7 °F 37.4 °F 76% 30.14 in 10.0 mi SSW 6.9 mph - N/A   Overcast
8:53 PM 44.1 °F 40.1 °F 37.9 °F 79% 30.15 in 10.0 mi SSW 6.9 mph - N/A   Overcast
9:18 PM 44.6 °F 42.2 °F 37.4 °F 76% 30.16 in 10.0 mi Variable 4.6 mph - N/A   Overcast
9:46 PM 44.6 °F 42.2 °F 37.4 °F 76% 30.18 in 10.0 mi SSW 4.6 mph - N/A   Overcast
9:53 PM 44.1 °F 40.8 °F 37.9 °F 79% 30.18 in 10.0 mi SSW 5.8 mph - N/A   Overcast
11:53 PM 44.1 °F 41.5 °F 37.9 °F 79% 30.17 in 10.0 mi South 4.6 mph - N/A   Overcast